Location: Lichtensteig
(47.3376°N, 9.0841°E)
Time: 19:34:13
(UTC+00:00)

FENGYUN 1C DEB - Pass Details

Date: 28 September 2021
Orbit: 837 x 877 km, 98.7° (Epoch: 18 October)

Event Time Altitude Azimuth Distance (km) Brightness Sun altitude
Rises 17:36:16 0° 160° (SSE) 3,456 ? -5.4°
Reaches altitude 10° 17:38:38 10° 160° (SSE) 2,524 ? -5.8°
Maximum altitude 17:44:16 83° 74° (ENE) 891 ? -6.8°
Drops below altitude 10° 17:49:56 10° 347° (NNW) 2,540 ? -7.8°
Sets 17:52:20 0° 347° (NNW) 3,479 ? -8.2°
